Dewpoint
2 1 1 1 -0 -1 -1 -1 -1 -0 0 0 0 1 1 1 0 0 -0 0 1 2 5 5 5 5 5 6 6 6 6 6 6 6 5 5 4 3 3 3 2 1 0
2 1 1 0 -0 -1 -0 0 0 1 1 1 1 1 1 1 1 1 1 1 1 1 3 4 5 5 4 4 4 5 5 5 4 4 3 3 2 2 2 1 1 0 0
2 2 1 1 0 1 1 1 1 1 0 0 1 1 1 1 1 1 2 2 2 2 2 2 3 3 3 2 1 1 2 2 2 2 2 2 1 1 1 1 -0 -1 -0
2 2 1 1 1 1 1 1 1 -0 -0 0 1 1 1 2 1 2 2 2 2 2 2 2 1 1 1 1 1 1 1 1 1 1 1 0 0 -0 -0 -1 -1 -1 -2
2 2 1 1 2 1 1 1 -0 -1 -0 0 1 1 1 2 2 2 2 2 2 2 2 2 1 1 1 1 1 0 0 0 0 -0 -1 -1 -3 -7 -7 -7 -6 -7 -11
2 2 2 2 2 1 1 -0 -1 -0 0 1 1 1 2 2 2 1 1 1 1 1 1 1 0 -0 -3 -4 -6 -9 -9 -11 -12 -9 -10 -13 -10 -11 -18 -20 -21 -24 -24
2 2 1 2 1 1 0 -1 -1 0 0 0 0 1 1 2 1 0 0 1 1 1 -0 -1 -5 -15 -24 -29 -30 -31 -32 -32 -31 -29 -23 -20 -17 -18 -20 -22 -23 -24 -25
2 2 1 1 1 1 -1 -1 -0 0 0 0 0 0 0 1 0 -1 -0 -1 -1 -2 -7 -17 -26 -29 -28 -28 -29 -29 -29 -28 -27 -27 -25 -24 -23 -24 -24 -24 -24 -25 -25
2 2 1 1 1 0 -1 -1 -0 -0 -0 0 0 0 -0 0 -1 -2 -2 -5 -14 -21 -29 -30 -27 -26 -25 -27 -29 -28 -28 -27 -27 -27 -27 -27 -27 -28 -28 -28 -28 -28 -28
2 2 1 1 1 -0 -1 -0 -0 -0 -0 -0 -0 -1 -1 -1 -2 -6 -19 -26 -29 -28 -27 -26 -25 -26 -27 -28 -29 -29 -27 -27 -25 -25 -24 -26 -27 -28 -28 -29 -28 -28 -26
2 2 1 1 0 -1 -1 -0 -0 0 -0 -0 -1 -1 -1 -3 -12 -25 -29 -30 -28 -26 -25 -24 -24 -25 -27 -28 -29 -29 -27 -26 -26 -25 -26 -27 -27 -27 -27 -27 -26 -23 -19
2 1 1 1 -1 -1 -1 -1 -0 -0 -0 -1 -1 -1 -3 -13 -22 -27 -31 -31 -28 -25 -25 -24 -24 -25 -28 -29 -29 -28 -27 -26 -26 -26 -26 -26 -26 -26 -26 -25 -22 -19 -17
1 1 1 -0 -1 -1 -1 -1 -0 -0 -1 -1 -1 -1 -4 -17 -23 -26 -27 -29 -28 -27 -26 -24 -25 -27 -28 -27 -26 -26 -28 -27 -26 -26 -26 -26 -26 -26 -25 -25 -22 -19 -17
1 0 -0 -1 -2 -1 -0 -0 -0 -1 -0 -1 -1 -2 -7 -20 -22 -23 -25 -26 -27 -26 -25 -24 -23 -24 -26 -26 -25 -25 -26 -26 -26 -26 -26 -26 -24 -25 -25 -25 -24 -21 -20
-0 -1 -1 -1 -1 -1 -1 -1 -0 -0 -1 -1 -1 -3 -12 -21 -21 -22 -23 -23 -24 -25 -26 -25 -23 -23 -23 -22 -23 -24 -26 -26 -26 -26 -26 -26 -25 -25 -25 -24 -24 -23 -22
2 1 1 1 1 0 -1 -1 -1 -1 -1 -2 -2 -5 -15 -19 -20 -21 -22 -22 -23 -25 -27 -27 -25 -24 -22 -21 -22 -23 -24 -25 -26 -26 -26 -25 -25 -25 -24 -24 -23 -23 -22
3 2 2 1 0 -0 -1 0 -0 -1 -1 -1 -3 -12 -17 -19 -20 -20 -21 -21 -22 -23 -23 -25 -25 -24 -22 -21 -22 -23 -24 -24 -25 -25 -25 -25 -24 -24 -23 -23 -22 -22 -21
2 2 2 1 1 1 0 -0 -0 -1 -2 -2 -5 -14 -18 -19 -18 -19 -19 -20 -21 -22 -22 -22 -22 -23 -23 -21 -21 -21 -22 -23 -24 -24 -23 -23 -22 -21 -20 -19 -19 -18 -16
2 2 2 2 1 1 0 -0 -1 -2 -2 -3 -6 -13 -16 -16 -16 -16 -17 -19 -20 -20 -20 -20 -20 -21 -22 -23 -23 -21 -20 -21 -22 -22 -21 -18 -15 -13 -11 -11 -11 -11 -11
1 1 2 2 1 0 0 -0 -0 -2 -2 -5 -6 -9 -13 -12 -13 -15 -15 -16 -17 -17 -17 -13 -13 -11 -18 -21 -23 -23 -20 -19 -19 -19 -16 -12 -11 -10 -10 -10 -9 -9 -9
0 0 0 1 1 1 0 0 0 -0 -0 -1 -1 -1 -2 -2 -3 -4 -3 -3 -5 -7 -6 -4 -5 -10 -5 -5 -12 -10 -14 -19 -15 -17 -13 -11 -9 -10 -10 -10 -10 -9 -9
-1 -1 -1 -0 0 1 0 0 -0 -0 -0 -0 -0 -1 -1 -1 -2 -2 -3 -3 -3 -3 -3 -9 -7 -8 -11 -6 -11 -7 -18 -8 -13 -8 -9 -7 -7 -11 -11 -10 -10 -9 -9
-1 -1 -1 -0 -0 0 -0 -0 -0 -0 -0 -0 -0 -1 -1 -1 -1 -1 -1 -2 -2 -2 -3 -4 -5 -5 -8 -6 -9 -7 -12 -10 -7 -8 -10 -7 -10 -12 -12 -11 -10 -10 -9
-1 -1 -1 -1 -1 -1 -0 -0 -0 -1 -1 -1 -1 -1 -1 -1 -1 -2 -2 -2 -3 -3 -3 -4 -4 -5 -6 -6 -7 -9 -10 -7 -11 -10 -7 -10 -14 -13 -12 -11 -11 -10 -9
-2 -2 -1 -1 -1 -1 -1 -1 -1 -1 -1 -1 -1 -1 -2 -2 -2 -2 -3 -3 -3 -4 -4 -4 -5 -5 -6 -6 -7 -7 -8 -9 -8 -8 -13 -16 -15 -14 -10 -10 -10 -9 -10
-2 -2 -2 -2 -2 -2 -2 -2 -2 -2 -2 -2 -3 -3 -3 -3 -3 -4 -4 -4 -4 -4 -5 -5 -5 -6 -6 -6 -6 -7 -7 -7 -13 -19 -15 -13 -12 -9 -10 -10 -9 -10 -10
Wind_Speed
25 27 26 19 21 20 18 18 20 21 22 22 22 21 20 20 19 18 18 16 15 14 13 13 14 15 15 15 15 17 18 20 20 20 19 21 21 19 18 20 20 16 13
22 21 19 15 14 14 16 19 20 21 22 21 20 20 20 19 17 17 16 15 13 13 13 14 15 15 16 15 15 18 20 18 16 16 17 17 17 17 19 18 13 11 10
21 20 17 16 16 16 17 18 19 20 21 21 20 20 20 19 17 16 16 16 15 15 14 13 12 13 13 14 15 13 13 12 13 15 17 18 15 15 14 11 8 9 9
20 18 17 15 14 15 17 19 20 21 21 20 21 20 19 18 17 16 16 17 16 16 15 15 14 14 13 13 12 12 12 12 12 13 11 11 10 8 9 9 10 11 10
19 18 16 15 15 16 18 20 21 20 20 21 19 18 18 17 17 16 16 16 15 15 14 14 13 13 12 11 10 9 9 10 10 10 9 8 8 8 6 8 10 10 11
19 18 16 16 17 17 19 20 19 18 18 18 18 18 17 16 15 15 14 14 13 13 10 11 9 8 7 6 7 9 8 7 9 9 10 8 9 9 10 9 10 10 8
19 18 17 17 17 18 19 18 15 15 15 15 15 14 15 14 14 12 12 12 11 10 9 8 8 8 6 6 5 5 6 6 8 9 10 10 12 10 11 11 12 11 9
20 19 17 17 17 18 17 16 15 14 13 14 14 14 14 13 11 10 10 10 10 9 9 7 8 7 6 5 6 6 6 5 7 9 10 10 11 11 11 10 10 10 9
22 20 19 18 18 18 16 14 14 13 12 12 13 13 14 12 9 9 9 8 8 7 6 6 8 6 6 6 7 8 7 6 7 8 9 10 9 10 10 10 10 9 6
24 22 19 19 18 18 15 15 12 11 11 13 12 13 14 11 11 9 8 8 8 7 7 7 7 8 7 8 9 8 7 7 6 7 8 7 7 8 8 8 8 7 5
23 20 20 19 18 16 15 13 11 12 13 13 12 13 11 11 10 9 9 8 8 7 7 7 7 8 8 8 8 8 7 8 7 6 7 6 7 7 6 6 6 6 7
21 20 20 18 18 14 13 13 13 14 15 14 13 13 12 12 11 10 10 9 8 8 8 8 8 8 8 8 7 7 7 7 8 7 7 7 8 8 6 6 7 9 9
18 19 18 18 17 14 14 13 15 15 16 15 15 14 14 13 12 11 10 9 9 9 9 9 9 9 8 7 7 7 7 7 8 8 8 9 9 9 9 9 10 10 11
16 17 19 17 16 15 15 15 15 17 16 17 17 16 15 14 13 12 11 11 11 10 11 11 11 10 9 9 9 8 8 9 9 10 10 10 11 10 10 11 12 13 12
13 16 17 15 16 15 15 15 15 16 17 17 16 15 16 15 11 11 12 12 12 12 13 13 12 11 11 11 10 10 9 10 10 10 11 11 12 13 11 12 12 13 15
14 14 16 15 16 16 14 13 14 16 17 18 18 18 17 16 15 14 14 14 13 14 16 15 13 13 12 12 12 12 12 12 11 11 11 12 13 13 13 13 14 15 16
18 18 18 18 19 19 17 16 15 18 19 18 18 18 17 16 15 16 16 16 16 17 19 17 16 14 13 13 13 14 14 14 14 14 13 13 14 14 15 15 16 17 18
20 20 21 20 20 19 20 19 16 17 18 18 19 19 19 18 19 19 19 19 21 22 21 20 18 16 15 15 15 16 15 15 15 14 14 14 15 15 16 17 17 19 20
21 22 21 22 21 20 18 20 19 18 19 18 17 20 20 20 21 21 21 24 23 23 22 22 20 17 17 17 17 17 17 16 16 16 15 16 16 16 18 18 19 20 21
21 20 21 22 22 23 22 21 23 23 24 21 20 19 17 19 23 24 24 25 26 26 24 25 22 21 19 18 18 18 18 18 17 17 16 17 17 18 20 20 21 22 22
23 20 20 22 23 23 25 26 23 23 24 26 27 25 24 25 27 27 29 30 30 32 33 32 30 27 31 29 20 21 21 17 19 17 17 18 18 22 22 22 23 22 23
23 21 20 23 22 23 23 24 26 27 27 27 26 26 26 27 29 30 32 33 33 33 32 30 29 27 27 26 19 23 20 19 19 18 19 21 21 23 23 24 23 23 23
18 18 18 20 21 21 20 20 21 22 22 23 23 24 24 25 26 27 29 29 30 32 32 32 32 30 30 28 25 22 20 23 24 18 22 23 22 24 24 24 24 24 24
14 16 19 20 21 21 20 19 19 18 18 18 19 19 20 20 21 23 25 25 26 27 26 25 27 30 28 28 24 20 23 22 17 20 22 21 24 24 25 26 27 26 26
12 12 13 15 16 17 17 17 17 16 16 16 17 17 18 19 22 22 22 22 21 23 22 21 22 23 26 24 25 22 20 19 20 17 20 23 24 25 26 27 28 27 26
11 11 12 13 13 13 14 14 15 15 16 16 15 16 19 19 19 19 18 17 17 18 17 17 17 18 20 22 22 19 18 15 17 20 21 23 25 26 26 27 25 24 25
Wind_Direction
215 214 219 221 222 227 244 259 268 274 275 275 277 278 278 278 279 279 279 280 274 266 258 253 252 249 252 258 257 252 255 261 261 251 252 264 274 281 285 289 297 299 300
222 221 221 225 234 241 250 258 264 267 272 274 276 275 275 275 275 273 274 274 272 266 255 245 245 247 247 251 251 247 247 250 251 253 264 272 272 274 282 288 294 299 297
212 211 218 226 231 242 252 262 269 271 273 274 273 271 272 272 269 267 267 265 261 259 259 257 251 250 251 251 253 253 250 250 251 255 263 270 271 270 274 273 280 285 286
213 218 226 237 248 255 267 273 274 275 273 272 270 271 269 268 264 260 257 258 258 258 258 258 253 254 256 256 252 250 251 250 251 253 258 264 274 265 262 262 274 275 279
221 227 234 244 256 265 270 272 273 272 269 268 270 266 265 263 263 260 256 253 249 249 250 254 252 251 252 252 248 248 253 257 256 254 254 254 272 278 270 272 272 275 280
226 231 242 253 262 269 270 271 272 270 268 266 267 268 267 263 261 257 250 246 237 238 236 238 242 232 235 232 238 241 252 260 266 256 258 266 268 279 287 283 277 274 276
234 240 251 260 271 277 278 276 276 275 275 268 265 265 268 263 256 249 238 233 233 222 215 214 226 243 249 254 255 253 259 266 263 260 257 262 267 277 280 282 284 287 290
234 241 251 262 269 271 274 274 275 275 265 264 257 258 262 258 248 238 223 208 205 199 201 218 243 252 263 266 271 275 271 271 265 265 266 269 274 279 281 284 283 284 289
236 240 250 259 267 272 275 275 275 270 260 252 248 251 260 243 224 209 196 192 202 215 219 232 251 260 277 281 276 274 276 267 271 272 270 272 277 281 281 281 282 282 279
235 237 247 260 268 275 274 273 271 257 244 240 242 251 253 225 211 205 201 206 211 222 232 244 261 274 280 280 277 276 275 282 280 275 273 277 279 276 274 274 277 280 283
233 238 248 259 267 269 266 265 257 242 236 235 240 244 233 214 207 209 218 224 230 235 242 252 259 277 282 281 276 279 285 283 283 274 276 284 280 273 267 268 270 276 282
233 237 246 257 264 263 259 256 245 237 233 232 236 235 222 214 218 221 224 232 242 248 258 268 278 280 286 287 279 279 281 278 278 277 284 282 278 280 276 270 267 273 279
238 242 251 256 256 250 247 249 240 235 234 235 237 232 221 220 225 226 233 242 249 257 266 273 279 286 293 287 285 291 284 279 278 284 282 279 281 278 278 275 276 281 283
248 250 253 253 250 244 250 245 242 241 237 238 239 227 223 226 230 237 242 248 256 262 271 274 281 290 289 283 284 285 282 275 278 280 278 279 282 281 278 282 284 284 284
262 260 258 252 250 251 253 252 249 247 245 245 243 234 233 237 242 246 248 254 258 262 264 269 276 284 284 284 285 286 283 279 281 278 276 278 278 280 284 280 282 283 287
266 267 263 257 255 254 251 250 246 244 242 245 238 234 232 239 242 249 251 253 257 260 265 270 275 279 281 279 284 289 289 289 286 280 279 278 278 281 285 286 287 288 289
267 268 263 254 251 251 243 245 255 251 248 247 240 242 239 245 251 255 258 260 260 261 264 269 272 277 281 282 288 290 291 289 284 283 282 280 280 282 283 285 285 286 289
263 265 265 259 254 254 248 241 243 254 244 243 241 242 243 246 250 254 255 255 252 255 261 267 272 277 281 281 286 288 287 283 281 281 279 281 282 286 286 288 287 287 287
257 256 261 260 254 252 252 242 237 248 249 246 247 244 244 248 254 254 253 256 260 263 267 271 275 277 282 285 286 288 288 285 281 278 279 283 284 287 290 291 290 288 288
261 254 253 256 254 247 245 244 237 239 238 249 251 248 243 246 251 254 257 261 264 265 265 272 276 275 274 282 284 285 287 284 282 279 281 285 290 290 292 293 291 290 288
261 260 250 252 252 249 247 247 246 244 247 248 248 249 252 252 258 261 263 264 266 267 269 270 265 263 264 265 269 272 280 281 284 280 283 285 288 290 292 292 291 291 291
254 256 250 251 251 252 251 251 252 254 255 255 258 259 260 262 262 264 265 266 268 272 270 269 273 270 270 274 262 264 274 269 275 277 280 283 289 288 289 291 291 291 291
246 250 249 247 249 251 250 250 249 251 253 255 258 261 263 264 266 267 269 270 270 270 268 263 265 262 261 266 255 255 263 264 269 272 272 282 287 286 287 289 290 291 292
245 241 244 245 246 247 248 248 248 248 250 252 255 259 264 269 272 275 275 274 272 271 272 268 265 263 264 257 261 252 255 270 269 265 276 287 283 285 288 292 293 292 291
254 247 245 242 241 243 245 245 246 248 251 255 262 268 273 277 279 279 278 276 274 272 275 270 267 258 262 265 258 258 255 252 266 281 283 281 285 286 287 287 287 287 285
264 259 249 243 240 239 241 244 249 252 256 260 267 279 283 282 281 280 278 276 275 274 271 268 265 261 264 268 271 258 264 276 287 280 281 280 281 285 286 286 285 285 287
Height
1491 1494 1497 1498 1499 1503 1507 1509 1510 1510 1510 1509 1509 1508 1508 1508 1507 1506 1506 1507 1506 1506 1506 1506 1507 1507 1509 1511 1510 1509 1511 1513 1513 1514 1513 1512 1510 1510 1511 1510 1509 1507 1506
1489 1493 1493 1494 1498 1499 1501 1503 1503 1504 1503 1502 1502 1502 1503 1502 1502 1501 1501 1502 1502 1502 1503 1502 1502 1502 1503 1504 1504 1505 1505 1506 1508 1508 1509 1507 1507 1505 1506 1506 1504 1504 1504
1487 1489 1489 1492 1493 1495 1496 1497 1498 1497 1497 1496 1496 1496 1497 1498 1496 1496 1497 1497 1497 1498 1499 1499 1498 1499 1499 1499 1500 1500 1502 1501 1503 1503 1504 1504 1502 1501 1502 1502 1501 1501 1501
1484 1485 1487 1489 1491 1491 1492 1492 1492 1492 1492 1491 1491 1491 1492 1493 1492 1491 1491 1493 1494 1496 1496 1496 1495 1495 1496 1497 1497 1496 1497 1497 1499 1499 1498 1499 1498 1497 1498 1498 1498 1498 1498
1481 1483 1484 1485 1486 1487 1487 1489 1487 1487 1486 1486 1487 1486 1487 1487 1488 1487 1486 1488 1488 1491 1492 1495 1494 1493 1493 1492 1493 1492 1494 1495 1495 1496 1494 1495 1494 1494 1494 1494 1495 1496 1493
1477 1479 1480 1481 1482 1482 1483 1483 1482 1482 1482 1482 1482 1481 1482 1483 1483 1483 1482 1485 1483 1486 1487 1489 1491 1493 1492 1490 1489 1489 1490 1490 1495 1492 1492 1491 1491 1492 1490 1491 1492 1493 1490
1473 1474 1475 1476 1476 1477 1477 1477 1478 1477 1478 1478 1478 1478 1478 1478 1479 1478 1478 1482 1483 1483 1484 1487 1488 1491 1490 1490 1489 1488 1486 1487 1490 1490 1490 1489 1488 1489 1489 1489 1490 1490 1488
1468 1469 1470 1471 1471 1472 1472 1472 1473 1473 1473 1474 1475 1475 1475 1475 1476 1476 1477 1479 1482 1482 1481 1482 1487 1488 1486 1486 1488 1486 1484 1485 1487 1488 1487 1487 1487 1486 1486 1486 1487 1486 1485
1462 1464 1465 1466 1467 1467 1467 1467 1467 1468 1469 1470 1471 1472 1472 1472 1474 1475 1477 1477 1480 1482 1480 1482 1485 1484 1484 1483 1485 1485 1481 1483 1484 1485 1485 1484 1484 1484 1484 1484 1484 1484 1482
1457 1459 1461 1462 1462 1462 1463 1463 1463 1464 1466 1467 1468 1469 1471 1472 1474 1474 1474 1476 1478 1479 1480 1481 1481 1481 1481 1482 1482 1481 1480 1481 1482 1482 1483 1481 1481 1482 1481 1482 1483 1482 1481
1453 1455 1456 1457 1457 1458 1459 1459 1460 1462 1463 1464 1466 1468 1469 1470 1471 1472 1474 1475 1476 1477 1478 1479 1479 1479 1479 1480 1479 1479 1478 1479 1480 1480 1479 1478 1479 1480 1479 1479 1480 1480 1479
1449 1450 1451 1452 1452 1454 1455 1456 1457 1459 1460 1461 1463 1464 1466 1467 1469 1471 1472 1473 1474 1475 1476 1476 1477 1477 1478 1477 1477 1476 1476 1476 1477 1477 1476 1476 1477 1477 1477 1477 1478 1477 1477
1445 1446 1447 1447 1448 1449 1451 1452 1454 1455 1456 1457 1459 1461 1463 1465 1467 1468 1470 1471 1472 1473 1474 1474 1474 1474 1474 1474 1475 1474 1473 1474 1474 1473 1473 1474 1474 1475 1474 1474 1475 1474 1474
1441 1442 1442 1442 1443 1445 1446 1447 1449 1451 1452 1454 1456 1458 1461 1462 1464 1466 1467 1468 1469 1470 1471 1471 1471 1471 1471 1472 1472 1471 1471 1471 1470 1470 1471 1471 1471 1472 1471 1471 1471 1471 1471
1438 1438 1437 1438 1439 1440 1441 1442 1444 1447 1450 1451 1453 1456 1457 1459 1462 1463 1464 1465 1466 1467 1468 1468 1468 1468 1468 1469 1469 1468 1468 1467 1466 1467 1467 1467 1468 1468 1467 1467 1466 1467 1466
1433 1433 1434 1434 1435 1436 1437 1438 1440 1443 1445 1447 1449 1451 1454 1456 1458 1459 1460 1461 1462 1463 1463 1464 1464 1464 1465 1465 1465 1464 1463 1463 1463 1463 1463 1463 1464 1463 1462 1462 1462 1462 1461
1429 1430 1430 1430 1430 1431 1432 1434 1436 1439 1441 1443 1446 1448 1451 1453 1454 1456 1456 1457 1458 1459 1458 1459 1460 1460 1460 1460 1461 1460 1460 1460 1460 1459 1459 1459 1459 1459 1458 1457 1457 1457 1456
1425 1425 1425 1425 1426 1426 1427 1429 1432 1434 1436 1439 1441 1443 1446 1448 1450 1451 1452 1452 1452 1452 1452 1454 1455 1456 1456 1456 1456 1456 1456 1456 1455 1455 1455 1455 1455 1454 1452 1452 1452 1451 1450
1419 1419 1420 1420 1421 1422 1423 1425 1427 1429 1431 1433 1436 1439 1441 1443 1444 1445 1446 1445 1446 1447 1448 1449 1450 1451 1451 1451 1451 1451 1451 1451 1451 1450 1450 1450 1450 1448 1447 1447 1446 1445 1444
1413 1413 1414 1415 1416 1417 1418 1420 1422 1424 1426 1428 1429 1433 1436 1437 1437 1438 1439 1439 1440 1441 1442 1443 1444 1445 1446 1446 1446 1446 1446 1446 1445 1445 1445 1445 1444 1443 1442 1441 1440 1439 1438
1406 1407 1408 1409 1410 1411 1412 1414 1416 1418 1420 1422 1424 1426 1429 1429 1430 1431 1432 1432 1433 1434 1435 1435 1436 1437 1438 1439 1439 1439 1440 1439 1440 1440 1440 1440 1439 1438 1436 1435 1433 1432 1431
1399 1401 1402 1402 1404 1405 1406 1408 1409 1411 1413 1414 1416 1418 1420 1421 1422 1422 1423 1424 1424 1425 1426 1427 1428 1429 1430 1430 1431 1432 1433 1433 1434 1433 1433 1432 1432 1431 1430 1428 1427 1426 1425
1393 1394 1396 1397 1398 1399 1400 1401 1403 1404 1406 1407 1409 1410 1411 1412 1413 1414 1414 1415 1415 1416 1416 1417 1418 1419 1421 1422 1422 1424 1425 1426 1426 1426 1426 1425 1425 1424 1423 1422 1420 1419 1418
1388 1388 1390 1391 1392 1393 1394 1396 1397 1398 1400 1401 1402 1403 1404 1405 1405 1406 1406 1406 1406 1406 1407 1408 1409 1410 1412 1413 1415 1416 1417 1419 1419 1419 1419 1418 1418 1417 1415 1414 1412 1411 1410
1384 1384 1385 1386 1387 1388 1389 1390 1392 1393 1394 1395 1396 1397 1397 1397 1397 1398 1398 1398 1398 1398 1399 1400 1401 1403 1405 1406 1407 1408 1410 1410 1411 1411 1412 1411 1411 1410 1408 1407 1405 1404 1402
1381 1381 1382 1382 1383 1384 1385 1386 1387 1388 1389 1390 1390 1390 1391 1391 1391 1391 1391 1391 1391 1392 1393 1394 1395 1397 1399 1400 1402 1403 1404 1404 1405 1405 1405 1404 1404 1402 1400 1399 1397 1396 1394